NUSAT-7 (SOPHIE) (45017 NORAD) Tracking and Keplerian Element Data

This shows tracking and keplerian element data for the satellite.

Feedback or suggestion? Click here.




ElementValue
Catalog45017
NameNUSAT-7 (SOPHIE)
Epoch Orbit1205
Epoch Day94.10840665
Epoch Year2020
RAAN161.6486
Inclination97.3238
Eccentricity0.0013062
Argument of Perigee2.3235
Mean Anonmoly357.8063
Mean Motion15.27440484
Decay Rate8.35E-06
L11 45017U 20003B 20094.10840665 .00000835 00000-0 33733-4 0 9996
L22 45017 97.3238 161.6486 0013062 2.3235 357.8063 15.27440484 12059

Live tracking and technical data element details for NUSAT-7 (SOPHIE) (NORAD 45017). NUSAT-7 (SOPHIE) can be tracked NOW for your location showing map with azimuth and elevation plus other details from your city location.

Track the satellite on the map from your city or location and see movement details for azimuth, elevation, latitude, longitude, range, height, and movement on the map or in text.







IsCatalogInMostPopularTable: catalog: 45017, numindb: 17
Update: records affected: 1



GetName: 45017 NUSAT-7 (SOPHIE)

Hit Count: updated at: Fri, 10 Apr 2020 19:39:17 GMT